Flag for U.S.A. Weather past 2 weeks in Springfield, Missouri, U.S.A.

Now
84 °F

Passing clouds.


Feels Like: 87 °F
Forecast: 64 / 83 °F
Wind: 13 mph from Southwest

Location: Springfield Regional Airport

Current Time: Sep 20, 2014 at 3:54:41 PM

Latest Report: Sep 20, 2014 at 2:52 PM


Visibility: 10 mi

Pressure: 29.97 "Hg

Humidity: 59%

Dew point: 68 °F

Location of SpringfieldLocation

Historic Weather in Springfield — Graph

°F

Springfield temperature yesterday

Maximum temperature yesterday: 78 °F (at 2:52 PM)
Minimum temperature yesterday: 61 °F (at 5:52 AM)
Average temperature yesterday: 69 °F

Past Weeks' High & Low Weather Summary

 TemperatureHumidityPressure
High92 °F (Sep 5, 3:52 PM)97% (Sep 17, 2:52 AM)30.37 "Hg (Sep 17, 2:52 AM)
Low45 °F (Sep 13, 7:52 AM)40% (Sep 13, 3:52 PM)29.66 "Hg (Sep 10, 4:52 AM)
Average67 °F76%30.06 "Hg
* Reported Sep 5 1:52 PM — Sep 20 1:52 PM, Springfield, Weather by CustomWeather, © 2014

Note: Actual official high and low records may vary slightly from our data, if they occured in-between our weather recording intervals... More about our weather records

Advertising

Springfield weather history for previous 24 hours

 ConditionsComfort  
Time TempWeatherWind HumidityBarometerVisibility
1:52 PM
Sep 20
84 °FPassing clouds.12 mph59%29.99 "Hg10 mi
12:52 PM83 °FScattered clouds.16 mph63%30.01 "Hg10 mi
7:52 AM66 °FFog.9 mph93%30.03 "Hg4 mi
6:52 AM65 °FFog.8 mph94%30.01 "Hg6 mi
5:52 AM65 °FFog.7 mph94%29.99 "Hg6 mi
4:52 AM65 °FFog.7 mph94%29.98 "Hg6 mi
3:52 AM63 °FFog.5 mph97%29.98 "Hg6 mi
2:52 AM65 °FClear.6 mph91%29.97 "Hg7 mi
1:52 AM66 °FClear.8 mph90%29.97 "Hg9 mi
12:52 AM67 °FClear.12 mph87%29.98 "Hg10 mi
11:52 PM
Sep 19
68 °FClear.8 mph84%29.98 "Hg10 mi
10:52 PM68 °FPassing clouds.8 mph84%29.99 "Hg10 mi
9:52 PM67 °FClear.7 mph85%29.99 "Hg10 mi
8:52 PM68 °FClear.5 mph84%29.98 "Hg10 mi
7:52 PM70 °FSunny.5 mph79%29.98 "Hg10 mi
6:52 PM74 °FSunny.7 mph71%29.97 "Hg10 mi
5:52 PM77 °FPassing clouds.6 mph64%29.98 "Hg10 mi
4:52 PM78 °FScattered clouds.8 mph62%29.98 "Hg10 mi
3:52 PM78 °FPartly sunny.7 mph60%29.99 "Hg10 mi
Weather by CustomWeather, © 2014

See weather overviewHow to use our weather pages